| time (UTC) | temp F | wind direction | speed MPH | gust MPH | rain 1hr in | rain 24hr in | rain mn in | humidity % | barometer mb |
| 20260503225043 | 96 | 118 | 5.0 | 11.0 | 0.00 | 0.00 | 0.00 | 100 | 1016.7 |
| 20260503224543 | 97 | 130 | 1.0 | 9.0 | 0.00 | 0.00 | 0.00 | 100 | 1016.7 |
| 20260503224043 | 96 | 163 | 6.0 | 10.0 | 0.00 | 0.00 | 0.00 | 100 | 1016.8 |
| 20260503223544 | 97 | 129 | 2.0 | 10.0 | 0.00 | 0.00 | 0.00 | 100 | 1016.8 |
| 20260503223043 | 98 | 125 | 5.0 | 10.0 | 0.00 | 0.00 | 0.00 | 100 | 1017.0 |
| 20260503222543 | 98 | 157 | 2.0 | 10.0 | 0.00 | 0.00 | 0.00 | 100 | 1017.1 |
| 20260503222042 | 98 | 135 | 0.0 | 9.0 | 0.00 | 0.00 | 0.00 | 100 | 1017.0 |
| 20260503221546 | 97 | 144 | 4.0 | 10.0 | 0.00 | 0.00 | 0.00 | 100 | 1017.3 |
| 20260503221543 | 98 | 105 | 0.0 | 9.0 | 0.00 | 0.00 | 0.00 | 100 | 1017.1 |
| 20260503220542 | 97 | 157 | 4.0 | 10.0 | 0.00 | 0.00 | 0.00 | 100 | 1017.3 |
| 20260503220044 | 98 | 129 | 0.0 | 9.0 | 0.00 | 0.00 | 0.00 | 100 | 1017.5 |
| 20260503215535 | 98 | 154 | 5.0 | 12.0 | 0.00 | 0.00 | 0.00 | 100 | 1017.6 |
| 20260503215036 | 98 | 146 | 4.0 | 16.0 | 0.00 | 0.00 | 0.00 | 100 | 1017.6 |
| 20260503214535 | 97 | 154 | 3.0 | 16.0 | 0.00 | 0.00 | 0.00 | 100 | 1017.6 |
| 20260503214306 | 98 | 142 | 4.0 | 11.0 | 0.00 | 0.00 | 0.00 | 100 | 1017.7 |
| 20260503213535 | 98 | 78 | 0.0 | 11.0 | 0.00 | 0.00 | 0.00 | 100 | 1017.8 |
| 20260503213257 | 98 | 133 | 4.0 | 8.0 | 0.00 | 0.00 | 0.00 | 100 | 1018.0 |
| 20260503212744 | 98 | 156 | 2.0 | 10.0 | 0.00 | 0.00 | 0.00 | 100 | 1018.0 |
| 20260503212013 | 97 | 108 | 2.0 | 11.0 | 0.00 | 0.00 | 0.00 | 100 | 1018.0 |
| 20260503211502 | 98 | 120 | 5.0 | 11.0 | 0.00 | 0.00 | 0.00 | 100 | 1018.1 |
| 20260503211002 | 97 | 153 | 5.0 | 10.0 | 0.00 | 0.00 | 0.00 | 100 | 1018.3 |
| 20260503210733 | 98 | 135 | 4.0 | 10.0 | 0.00 | 0.00 | 0.00 | 100 | 1018.5 |
| 20260503210002 | 98 | 132 | 0.0 | 10.0 | 0.00 | 0.00 | 0.00 | 100 | 1018.6 |
| 20260503205457 | 98 | 160 | 5.0 | 10.0 | 0.00 | 0.00 | 0.00 | 100 | 1018.8 |
| 20260503204957 | 99 | 158 | 5.0 | 9.0 | 0.00 | 0.00 | 0.00 | 100 | 1018.9 |
| 20260503204456 | 99 | 150 | 4.0 | 10.0 | 0.00 | 0.00 | 0.00 | 100 | 1018.9 |
| 20260503203956 | 98 | 189 | 6.0 | 10.0 | 0.00 | 0.00 | 0.00 | 100 | 1018.9 |
| 20260503203457 | 98 | 142 | 5.0 | 10.0 | 0.00 | 0.00 | 0.00 | 100 | 1019.1 |
| 20260503203227 | 98 | 127 | 4.0 | 10.0 | 0.00 | 0.00 | 0.00 | 100 | 1019.2 |
| 20260503202457 | 98 | 156 | 2.0 | 10.0 | 0.00 | 0.00 | 0.00 | 100 | 1019.2 |
| 20260503201956 | 99 | 178 | 5.0 | 10.0 | 0.00 | 0.00 | 0.00 | 100 | 1019.4 |
| 20260503201725 | 98 | 104 | 2.0 | 10.0 | 0.00 | 0.00 | 0.00 | 100 | 1019.4 |
| 20260503200953 | 98 | 156 | 2.0 | 13.0 | 0.00 | 0.00 | 0.00 | 100 | 1019.5 |
| 20260503200453 | 98 | 146 | 6.0 | 13.0 | 0.00 | 0.00 | 0.00 | 100 | 1019.6 |
| 20260503195953 | 99 | 154 | 0.0 | 10.0 | 0.00 | 0.00 | 0.00 | 100 | 1019.5 |
| 20260503195452 | 98 | 157 | 6.0 | 10.0 | 0.00 | 0.00 | 0.00 | 100 | 1019.8 |
| 20260503195223 | 99 | 158 | 4.0 | 10.0 | 0.00 | 0.00 | 0.00 | 100 | 1019.9 |
| 20260503194453 | 99 | 209 | 4.0 | 10.0 | 0.00 | 0.00 | 0.00 | 100 | 1020.0 |
| 20260503194224 | 98 | 164 | 5.0 | 9.0 | 0.00 | 0.00 | 0.00 | 100 | 1019.9 |
| 20260503193453 | 98 | 151 | 6.0 | 10.0 | 0.00 | 0.00 | 0.00 | 100 | 1020.0 |
| 20260503192953 | 98 | 139 | 4.0 | 10.0 | 0.00 | 0.00 | 0.00 | 100 | 1020.0 |
| 20260503192452 | 98 | 106 | 1.0 | 9.0 | 0.00 | 0.00 | 0.00 | 100 | 1020.1 |
| 20260503192222 | 98 | 133 | 5.0 | 9.0 | 0.00 | 0.00 | 0.00 | 100 | 1020.1 |
| 20260503191451 | 98 | 127 | 0.0 | 11.0 | 0.00 | 0.00 | 0.00 | 100 | 1020.2 |
| 20260503190947 | 98 | 150 | 6.0 | 11.0 | 0.00 | 0.00 | 0.00 | 100 | 1020.3 |
| 20260503190446 | 99 | 180 | 0.0 | 8.0 | 0.00 | 0.00 | 0.00 | 100 | 1020.3 |
| 20260503190215 | 98 | 164 | 5.0 | 11.0 | 0.00 | 0.00 | 0.00 | 100 | 1020.5 |
| 20260503185443 | 98 | 171 | 3.0 | 11.0 | 0.00 | 0.00 | 0.00 | 100 | 1020.6 |
| 20260503185215 | 97 | 158 | 5.0 | 9.0 | 0.00 | 0.00 | 0.00 | 100 | 1020.6 |
| 20260503184443 | 98 | 156 | 4.0 | 10.0 | 0.00 | 0.00 | 0.00 | 100 | 1020.7 |
| 20260503183942 | 98 | 127 | 0.0 | 10.0 | 0.00 | 0.00 | 0.00 | 100 | 1020.8 |
| 20260503183444 | 97 | 167 | 4.0 | 10.0 | 0.00 | 0.00 | 0.00 | 100 | 1020.9 |
| 20260503182942 | 96 | 164 | 7.0 | 10.0 | 0.00 | 0.00 | 0.00 | 100 | 1021.1 |
| 20260503182443 | 97 | 140 | 1.0 | 9.0 | 0.00 | 0.00 | 0.00 | 100 | 1021.2 |
| 20260503181943 | 97 | 143 | 5.0 | 9.0 | 0.00 | 0.00 | 0.00 | 100 | 1021.1 |
| 20260503181443 | 98 | 119 | 3.0 | 11.0 | 0.00 | 0.00 | 0.00 | 100 | 1021.2 |
| 20260503180943 | 97 | 94 | 4.0 | 11.0 | 0.00 | 0.00 | 0.00 | 100 | 1021.4 |
| 20260503180443 | 97 | 135 | 3.0 | 9.0 | 0.00 | 0.00 | 0.00 | 100 | 1021.7 |
| 20260503180212 | 98 | 196 | 4.0 | 10.0 | 0.00 | 0.00 | 0.00 | 100 | 1021.8 |
| 20260503175439 | 98 | 143 | 5.0 | 10.0 | 0.00 | 0.00 | 0.00 | 100 | 1021.8 |
| 20260503174923 | 98 | 195 | 1.0 | 8.0 | 0.00 | 0.00 | 0.00 | 100 | 1021.9 |
| 20260503174416 | 98 | 139 | 1.0 | 12.0 | 0.00 | 0.00 | 0.00 | 100 | 1022.0 |
| 20260503174144 | 98 | 150 | 4.0 | 12.0 | 0.00 | 0.00 | 0.00 | 100 | 1022.1 |
| 20260503173407 | 98 | 178 | 3.0 | 8.0 | 0.00 | 0.00 | 0.00 | 100 | 1022.0 |
| 20260503173116 | 97 | 150 | 4.0 | 10.0 | 0.00 | 0.00 | 0.00 | 100 | 1022.1 |
| 20260503172345 | 98 | 111 | 0.0 | 10.0 | 0.00 | 0.00 | 0.00 | 100 | 1022.1 |
| 20260503171839 | 98 | 150 | 5.0 | 9.0 | 0.00 | 0.00 | 0.00 | 100 | 1022.2 |
| 20260503171339 | 97 | 143 | 2.0 | 9.0 | 0.00 | 0.00 | 0.00 | 100 | 1022.2 |
| 20260503170840 | 97 | 132 | 2.0 | 10.0 | 0.00 | 0.00 | 0.00 | 100 | 1022.4 |
| 20260503170609 | 97 | 208 | 5.0 | 12.0 | 0.00 | 0.00 | 0.00 | 100 | 1022.5 |
| 20260503150739 | 94 | 202 | 0.0 | 0.0 | 0.00 | 0.00 | 0.00 | 100 | 1023.1 |
| 20260503150501 | 93 | 202 | 0.0 | 2.0 | 0.00 | 0.00 | 0.00 | 100 | 1023.1 |
| 20260503140129 | 87 | 191 | 0.0 | 4.0 | 0.00 | 0.00 | 0.00 | 100 | 1022.7 |
| 20260503131044 | 83 | 244 | 1.0 | 3.0 | 0.00 | 0.00 | 0.00 | 100 | 1022.4 |
| 20260503130539 | 83 | 49 | 0.0 | 0.0 | 0.00 | 0.00 | 0.00 | 100 | 1022.4 |
| 20260503120129 | 79 | 49 | 0.0 | 0.0 | 0.00 | 0.00 | 0.00 | 100 | 1021.9 |
| 20260503110811 | 79 | 49 | 0.0 | 0.0 | 0.00 | 0.00 | 0.00 | 100 | 1021.5 |
| 20260503110307 | 79 | 49 | 0.0 | 0.0 | 0.00 | 0.00 | 0.00 | 100 | 1021.4 |
| 20260503100106 | 80 | 49 | 0.0 | 0.0 | 0.00 | 0.00 | 0.00 | 100 | 1020.7 |
| 20260503080906 | 81 | 49 | 0.0 | 0.0 | 0.00 | 0.00 | 0.00 | 29 | 1020.7 |
| 20260503080345 | 81 | 49 | 0.0 | 0.0 | 0.00 | 0.00 | 0.00 | 26 | 1020.7 |
| 20260503072802 | 81 | 49 | 0.0 | 0.0 | 0.00 | 0.00 | 0.00 | 9 | 1020.8 |
| 20260503072254 | 81 | 49 | 0.0 | 0.0 | 0.00 | 0.00 | 0.00 | 8 | 1020.9 |
| 20260503071745 | 81 | 49 | 0.0 | 0.0 | 0.00 | 0.00 | 0.00 | 7 | 1020.9 |
| 20260503071229 | 81 | 49 | 0.0 | 0.0 | 0.00 | 0.00 | 0.00 | 6 | 1020.9 |
| 20260503070952 | 81 | 49 | 0.0 | 0.0 | 0.00 | 0.00 | 0.00 | 6 | 1020.9 |
| 20260503070450 | 81 | 49 | 0.0 | 0.0 | 0.00 | 0.00 | 0.00 | 5 | 1021.1 |
| 20260503060228 | 82 | 49 | 0.0 | 0.0 | 0.00 | 0.00 | 0.00 | 1 | 1021.2 |
| 20260503054945 | 82 | 49 | 0.0 | 0.0 | 0.00 | 0.00 | 0.00 | 1 | 1021.2 |
| 20260503054444 | 82 | 49 | 0.0 | 0.0 | 0.00 | 0.00 | 0.00 | 100 | 1021.2 |
| 20260503053936 | 82 | 49 | 0.0 | 0.0 | 0.00 | 0.00 | 0.00 | 100 | 1021.2 |
| 20260503053420 | 82 | 49 | 0.0 | 0.0 | 0.00 | 0.00 | 0.00 | 100 | 1021.4 |
| 20260503052900 | 82 | 49 | 0.0 | 0.0 | 0.00 | 0.00 | 0.00 | 100 | 1021.4 |
| 20260503052334 | 82 | 49 | 0.0 | 0.0 | 0.00 | 0.00 | 0.00 | 100 | 1021.4 |
| 20260503051811 | 82 | 49 | 0.0 | 0.0 | 0.00 | 0.00 | 0.00 | 100 | 1021.4 |
| 20260503051312 | 82 | 49 | 0.0 | 0.0 | 0.00 | 0.00 | 0.00 | 100 | 1021.5 |
| 20260503050808 | 82 | 49 | 0.0 | 0.0 | 0.00 | 0.00 | 0.00 | 100 | 1021.4 |
| 20260503050539 | 82 | 49 | 0.0 | 0.0 | 0.00 | 0.00 | 0.00 | 100 | 1021.4 |
| 20260503045808 | 82 | 49 | 0.0 | 0.0 | 0.00 | 0.00 | 0.00 | 100 | 1021.4 |
| 20260503045252 | 82 | 49 | 0.0 | 0.0 | 0.00 | 0.00 | 0.00 | 100 | 1021.2 |
| 20260503044959 | 82 | 49 | 0.0 | 0.0 | 0.00 | 0.00 | 0.00 | 100 | 1021.2 |
| 20260503044210 | 83 | 49 | 0.0 | 0.0 | 0.00 | 0.00 | 0.00 | 100 | 1021.4 |
| 20260503043705 | 83 | 49 | 0.0 | 0.0 | 0.00 | 0.00 | 0.00 | 100 | 1021.4 |
| 20260503043157 | 83 | 49 | 0.0 | 0.0 | 0.00 | 0.00 | 0.00 | 100 | 1021.2 |
| 20260503042652 | 83 | 49 | 0.0 | 0.0 | 0.00 | 0.00 | 0.00 | 100 | 1021.2 |
| 20260503042421 | 83 | 49 | 0.0 | 0.0 | 0.00 | 0.00 | 0.00 | 100 | 1021.2 |
| 20260503041638 | 83 | 49 | 0.0 | 0.0 | 0.00 | 0.00 | 0.00 | 100 | 1021.2 |
| 20260503041136 | 83 | 49 | 0.0 | 0.0 | 0.00 | 0.00 | 0.00 | 100 | 1020.9 |
| 20260503040616 | 83 | 49 | 0.0 | 0.0 | 0.00 | 0.00 | 0.00 | 100 | 1020.9 |
| 20260503040323 | 83 | 49 | 0.0 | 0.0 | 0.00 | 0.00 | 0.00 | 100 | 1020.9 |
| 20260503035547 | 83 | 49 | 0.0 | 0.0 | 0.00 | 0.00 | 0.00 | 100 | 1021.1 |
| 20260503035042 | 84 | 49 | 0.0 | 0.0 | 0.00 | 0.00 | 0.00 | 100 | 1021.1 |
| 20260503034532 | 84 | 49 | 0.0 | 0.0 | 0.00 | 0.00 | 0.00 | 100 | 1021.1 |
| 20260503034033 | 84 | 49 | 0.0 | 0.0 | 0.00 | 0.00 | 0.00 | 100 | 1020.9 |
| 20260503033522 | 84 | 49 | 0.0 | 0.0 | 0.00 | 0.00 | 0.00 | 100 | 1020.8 |
| 20260503033013 | 84 | 49 | 0.0 | 0.0 | 0.00 | 0.00 | 0.00 | 100 | 1020.8 |
| 20260503032721 | 84 | 49 | 0.0 | 0.0 | 0.00 | 0.00 | 0.00 | 100 | 1020.7 |
| 20260503031935 | 84 | 49 | 0.0 | 0.0 | 0.00 | 0.00 | 0.00 | 100 | 1020.7 |
| 20260503031930 | 84 | 49 | 0.0 | 0.0 | 0.00 | 0.00 | 0.00 | 100 | 1020.7 |
| 20260503030929 | 85 | 49 | 0.0 | 0.0 | 0.00 | 0.00 | 0.00 | 100 | 1020.6 |
| 20260503030406 | 85 | 49 | 0.0 | 0.0 | 0.00 | 0.00 | 0.00 | 100 | 1020.6 |
| 20260503025857 | 85 | 49 | 0.0 | 0.0 | 0.00 | 0.00 | 0.00 | 100 | 1020.5 |
| 20260503025357 | 85 | 49 | 0.0 | 0.0 | 0.00 | 0.00 | 0.00 | 100 | 1020.6 |
| 20260503024849 | 85 | 49 | 0.0 | 0.0 | 0.00 | 0.00 | 0.00 | 100 | 1020.6 |
| 20260503024316 | 85 | 49 | 0.0 | 0.0 | 0.00 | 0.00 | 0.00 | 100 | 1020.6 |
| 20260503023803 | 85 | 49 | 0.0 | 0.0 | 0.00 | 0.00 | 0.00 | 100 | 1020.4 |
| 20260503023759 | 85 | 49 | 0.0 | 0.0 | 0.00 | 0.00 | 0.00 | 100 | 1020.3 |
| 20260503022743 | 85 | 49 | 0.0 | 0.0 | 0.00 | 0.00 | 0.00 | 100 | 1020.2 |
| 20260503022242 | 86 | 49 | 0.0 | 0.0 | 0.00 | 0.00 | 0.00 | 100 | 1020.1 |
| 20260503021743 | 87 | 49 | 0.0 | 0.0 | 0.00 | 0.00 | 0.00 | 100 | 1020.1 |
| 20260503021225 | 87 | 49 | 0.0 | 0.0 | 0.00 | 0.00 | 0.00 | 100 | 1020.0 |
| 20260503020722 | 87 | 49 | 0.0 | 0.0 | 0.00 | 0.00 | 0.00 | 100 | 1019.9 |
| 20260503020212 | 87 | 49 | 0.0 | 0.0 | 0.00 | 0.00 | 0.00 | 100 | 1019.9 |
| 20260503015943 | 87 | 49 | 0.0 | 0.0 | 0.00 | 0.00 | 0.00 | 100 | 1019.9 |
| 20260503015203 | 87 | 49 | 0.0 | 0.0 | 0.00 | 0.00 | 0.00 | 100 | 1019.9 |
| 20260503014641 | 88 | 49 | 0.0 | 0.0 | 0.00 | 0.00 | 0.00 | 100 | 1019.9 |
| 20260503014141 | 88 | 49 | 0.0 | 0.0 | 0.00 | 0.00 | 0.00 | 100 | 1019.9 |
| 20260503013628 | 88 | 49 | 0.0 | 0.0 | 0.00 | 0.00 | 0.00 | 100 | 1019.9 |
| 20260503013122 | 88 | 49 | 0.0 | 0.0 | 0.00 | 0.00 | 0.00 | 100 | 1019.9 |
| 20260503012621 | 88 | 49 | 0.0 | 0.0 | 0.00 | 0.00 | 0.00 | 100 | 1019.8 |
| 20260503012102 | 89 | 49 | 0.0 | 0.0 | 0.00 | 0.00 | 0.00 | 100 | 1019.7 |
| 20260503011601 | 89 | 49 | 0.0 | 0.0 | 0.00 | 0.00 | 0.00 | 100 | 1019.6 |
| 20260503011039 | 90 | 49 | 0.0 | 0.0 | 0.00 | 0.00 | 0.00 | 100 | 1019.6 |
| 20260503010529 | 90 | 49 | 0.0 | 0.0 | 0.00 | 0.00 | 0.00 | 100 | 1019.5 |
| 20260503010025 | 91 | 49 | 0.0 | 0.0 | 0.00 | 0.00 | 0.00 | 100 | 1019.5 |
| 20260503005513 | 91 | 49 | 0.0 | 0.0 | 0.00 | 0.00 | 0.00 | 100 | 1019.6 |
| 20260503004958 | 91 | 49 | 0.0 | 0.0 | 0.00 | 0.00 | 0.00 | 100 | 1019.5 |
| 20260503004459 | 91 | 49 | 0.0 | 0.0 | 0.00 | 0.00 | 0.00 | 100 | 1019.5 |
| 20260503004227 | 92 | 49 | 0.0 | 0.0 | 0.00 | 0.00 | 0.00 | 100 | 1019.4 |
| 20260503003437 | 92 | 49 | 0.0 | 0.0 | 0.00 | 0.00 | 0.00 | 100 | 1019.4 |
| 20260503002911 | 92 | 49 | 0.0 | 5.0 | 0.00 | 0.00 | 0.00 | 100 | 1019.4 |
| 20260503002346 | 93 | 49 | 0.0 | 5.0 | 0.00 | 0.00 | 0.00 | 100 | 1019.3 |
| 20260503001825 | 93 | 59 | 0.0 | 6.0 | 0.00 | 0.00 | 0.00 | 100 | 1019.3 |
| 20260503001309 | 93 | 59 | 0.0 | 6.0 | 0.00 | 0.00 | 0.00 | 100 | 1019.3 |
| 20260503000809 | 93 | 46 | 1.0 | 5.0 | 0.00 | 0.00 | 0.00 | 100 | 1019.3 |
| 20260503000311 | 93 | 22 | 0.0 | 4.0 | 0.00 | 0.00 | 0.00 | 100 | 1019.3 |
| 20260502235809 | 93 | 274 | 0.0 | 2.0 | 0.00 | 0.00 | 0.00 | 100 | 1019.2 |
| 20260502235258 | 93 | 274 | 0.0 | 5.0 | 0.00 | 0.01 | 0.00 | 100 | 1019.2 |
| 20260502234742 | 94 | 274 | 0.0 | 5.0 | 0.00 | 0.01 | 0.00 | 100 | 1019.3 |
| 20260502234243 | 94 | 120 | 2.0 | 7.0 | 0.00 | 0.01 | 0.00 | 100 | 1019.3 |
| 20260502234010 | 94 | 2 | 2.0 | 7.0 | 0.00 | 0.01 | 0.00 | 100 | 1019.2 |
| 20260502233239 | 94 | 326 | 0.0 | 5.0 | 0.00 | 0.01 | 0.00 | 100 | 1019.2 |
| 20260502232740 | 94 | 319 | 1.0 | 5.0 | 0.00 | 0.01 | 0.00 | 100 | 1019.2 |
| 20260502232234 | 94 | 354 | 0.0 | 6.0 | 0.00 | 0.01 | 0.00 | 100 | 1019.2 |
| 20260502231731 | 94 | 354 | 3.0 | 6.0 | 0.00 | 0.01 | 0.00 | 100 | 1019.2 |
| 20260502231229 | 94 | 32 | 0.0 | 10.0 | 0.00 | 0.01 | 0.00 | 100 | 1019.1 |
| 20260502230717 | 94 | 16 | 0.0 | 10.0 | 0.00 | 0.01 | 0.00 | 100 | 1019.2 |
| 20260502230216 | 94 | 347 | 1.0 | 9.0 | 0.00 | 0.01 | 0.00 | 100 | 1019.1 |
| 20260502225715 | 94 | 358 | 2.0 | 9.0 | 0.00 | 0.01 | 0.00 | 100 | 1019.2 |